Simultaneous Nadir Overpasses (SNOs) Predictions

Prediction of SNOs between METOP-B and NPP Satellite Orbit:

Table of predicted SNOs for the next 14.0 days since TLE Epoch: 4/2/2016
Index Date (METOP-B) Time (METOP-B) Lat,Lon (METOP-B) SZA (METOP-B ) Date (NPP) Time (NPP) Lat,Lon (NPP) SZA (NPP ) Distance(km) Time Diff (sec)
1 04/06/2016 17:16:15 73.47, -85.85 66.72 04/06/2016 17:15:07 73.49, -88.18 66.86 74.00 68
2 04/06/2016 18:06:59 -73.38, 81.28 113.38 04/06/2016 18:05:49 -73.38, 79.39 113.28 60.26 70
3 04/06/2016 18:57:43 73.15,-111.90 66.40 04/06/2016 18:56:31 73.19,-112.89 66.51 32.39 72
4 04/06/2016 19:48:27 -73.06, 55.24 113.69 04/06/2016 19:47:13 -73.08, 54.67 113.63 18.55 74
5 04/06/2016 20:39:09 72.93,-137.72 66.17 04/06/2016 20:37:56 72.95,-137.73 66.21 2.40 73
6 04/06/2016 21:29:51 -72.94, 29.64 113.83 04/06/2016 21:28:40 -72.93, 29.61 113.82 1.32 71
7 04/06/2016 22:20:31 72.90,-163.10 66.13 04/06/2016 22:19:25 72.90,-163.01 66.13 3.12 66
8 04/06/2016 23:11:13 -72.92, 4.26 113.87 04/06/2016 23:10:10 -72.94, 4.23 113.84 2.04 63
9 04/07/2016 00:01:52 72.94, 171.62 66.13 04/07/2016 00:00:55 72.90, 171.61 66.11 3.61 57
10 04/07/2016 00:52:35 -72.90, -21.12 113.92 04/07/2016 00:51:39 -72.89, -21.05 113.92 2.74 56
11 04/07/2016 01:43:14 72.92, 146.24 66.09 04/07/2016 01:42:25 72.91, 146.23 66.09 1.02 49
12 04/07/2016 02:33:57 -72.88, -46.51 113.96 04/07/2016 02:33:09 -72.89, -46.43 113.94 2.85 48
13 04/07/2016 03:24:36 72.90, 120.86 66.04 04/07/2016 03:23:55 72.91, 120.85 66.07 1.80 41
14 04/07/2016 04:15:18 -72.91, -71.78 113.96 04/07/2016 04:14:39 -72.90, -71.81 113.97 1.85 39
15 04/07/2016 05:05:58 72.87, 95.48 66.00 04/07/2016 05:05:24 72.86, 95.57 65.99 3.29 34
16 04/07/2016 05:56:40 -72.89, -97.16 114.01 04/07/2016 05:56:09 -72.90, -97.20 113.99 1.51 31
17 04/07/2016 06:47:20 72.85, 70.09 65.95 04/07/2016 06:46:54 72.87, 70.19 65.97 3.38 26
18 04/07/2016 07:38:02 -72.87,-122.55 114.05 04/07/2016 07:37:38 -72.86,-122.47 114.07 3.07 24
19 04/07/2016 08:28:40 72.89, 44.82 65.95 04/07/2016 08:28:23 72.87, 44.80 65.94 1.59 17
20 04/07/2016 09:19:23 -72.85,-147.93 114.10 04/07/2016 09:19:07 -72.86,-147.85 114.09 2.54 16
21 04/07/2016 10:10:02 72.86, 19.44 65.91 04/07/2016 10:09:53 72.88, 19.42 65.92 1.23 9
22 04/07/2016 11:00:44 -72.88,-173.20 114.09 04/07/2016 11:00:37 -72.86,-173.24 114.11 2.46 7
23 04/07/2016 11:51:24 72.84, -5.95 65.86 04/07/2016 11:51:22 72.83, -5.85 65.84 3.54 2
24 04/07/2016 12:42:06 -72.86, 161.41 114.14 04/07/2016 12:42:07 -72.87, 161.38 114.13 1.17 1
25 04/07/2016 13:32:46 72.82, -31.33 65.82 04/07/2016 13:32:52 72.83, -31.24 65.82 3.14 6
26 04/07/2016 14:23:28 -72.84, 136.03 114.18 04/07/2016 14:23:37 -72.87, 136.00 114.16 3.26 9
27 04/07/2016 15:14:07 72.85, -56.60 65.82 04/07/2016 15:14:22 72.84, -56.62 65.80 2.18 15
28 04/07/2016 16:04:50 -72.82, 110.65 114.23 04/07/2016 16:05:06 -72.82, 110.72 114.23 2.36 16
29 04/07/2016 16:55:29 72.83, -81.99 65.77 04/07/2016 16:55:52 72.84, -82.00 65.78 0.72 23
30 04/07/2016 17:46:11 -72.85, 85.37 114.23 04/07/2016 17:46:36 -72.83, 85.34 114.26 3.09 25
31 04/07/2016 18:36:51 72.81,-107.37 65.73 04/07/2016 18:37:22 72.84,-107.38 65.75 3.25 31
32 04/07/2016 19:27:33 -72.83, 59.99 114.27 04/07/2016 19:28:06 -72.83, 59.96 114.28 1.17 33
33 04/07/2016 20:18:13 72.79,-132.75 65.68 04/07/2016 20:18:51 72.80,-132.66 65.68 2.99 38
34 04/07/2016 21:08:55 -72.81, 34.61 114.32 04/07/2016 21:09:36 -72.83, 34.58 114.30 2.67 41
35 04/07/2016 21:59:34 72.82,-158.03 65.69 04/07/2016 22:00:21 72.80,-158.04 65.65 2.77 47
36 04/07/2016 22:50:17 -72.79, 9.23 114.36 04/07/2016 22:51:05 -72.79, 9.30 114.38 2.35 48
37 04/07/2016 23:40:56 72.80, 176.59 65.64 04/07/2016 23:41:51 72.80, 176.57 65.63 0.53 55
38 04/08/2016 00:31:39 -72.77, -16.15 114.41 04/08/2016 00:32:35 -72.79, -16.08 114.40 3.07 56
39 04/08/2016 01:22:18 72.78, 151.21 65.60 04/08/2016 01:23:21 72.81, 151.19 65.61 2.68 63
40 04/08/2016 02:13:00 -72.80, -41.43 114.40 04/08/2016 02:14:05 -72.79, -41.47 114.42 1.52 65
41 04/08/2016 03:03:40 72.76, 125.83 65.55 04/08/2016 03:04:50 72.76, 125.91 65.53 2.94 70
42 04/08/2016 03:54:22
